Location: Centerville
(32.8776°N, 96.6203°W)
Time: 00:47:24
(UTC+00:00)

Cosmos 1371 Rocket - Pass Details

Date: 17 June 2021
Orbit: 753 x 790 km, 74.0° (Epoch: 01 August)

Event Time Altitude Azimuth Distance (km) Brightness Sun altitude
Rises 02:12:01 0° 197° (SSW) 3,191 7.0 -7.1°
Reaches altitude 10° 02:14:22 10° 198° (SSW) 2,268 6.3 -7.5°
Maximum altitude 02:19:30 84° 286° (WNW) 761 4.1 -8.4°
Drops below altitude 10° 02:24:41 10° 15° (NNE) 2,282 6.7 -9.3°
Sets 02:27:04 0° 16° (NNE) 3,213 7.5 -9.7°
